When you browse on this site, cookies collect data to enhance your experience and personalize the content and advertising you see.
Visit our Privacy Policy to learn more. By continuing to use the site, you agree to this use of cookies and data.
  • Em Portugal
  • Lista de países
  • Para 7 dias
  • Temperatura da água
  • Mapas de satélite
  • Mapa do tempo
  • Widgets de tempo
  • user-avatar
    Iniciar Sessão

    Previsão horária em Nadżaf

    Hoje, 21 Janeiro, Segunda-feira

    Tempo Temperatura Precipitação Vento Pressão Humidade
    00:00 +8°C° 0 mm 1 m/s 758 mmHg 40%
    01:00 +7°C° 0 mm 0 m/s 758 mmHg 40%
    02:00 +7°C° 0 mm 0 m/s 758 mmHg 40%
    03:00 +8°C° 0 mm 1 m/s 758 mmHg 41%
    04:00 +8°C° 0 mm 1 m/s 758 mmHg 41%
    05:00 +8°C° 0 mm 1 m/s 758 mmHg 42%
    06:00 +8°C° 0 mm 1 m/s 758 mmHg 42%
    07:00 +9°C° 0 mm 1 m/s 758 mmHg 41%
    08:00 +10°C° 0 mm 1 m/s 758 mmHg 39%
    09:00 +9°C° 0 mm 0 m/s 758 mmHg 37%
    10:00 +11°C° 0 mm 1 m/s 758 mmHg 34%
    11:00 +12°C° 0 mm 1 m/s 757 mmHg 31%
    12:00 +13°C° 0 mm 1 m/s 757 mmHg 27%
    13:00 +14°C° 0 mm 1 m/s 756 mmHg 26%
    14:00 +14°C° 0 mm 1 m/s 756 mmHg 24%
    15:00 +15°C° 0 mm 1 m/s 755 mmHg 22%
    16:00 +14°C° 0 mm 1 m/s 755 mmHg 24%
    17:00 +13°C° 0 mm 1 m/s 755 mmHg 26%
    18:00 +13°C° 0 mm 1 m/s 755 mmHg 27%
    19:00 +12°C° 0 mm 1 m/s 755 mmHg 28%
    20:00 +12°C° 0 mm 1 m/s 755 mmHg 30%
    21:00 +11°C° 0 mm 1 m/s 755 mmHg 31%
    22:00 +11°C° 0 mm 1 m/s 755 mmHg 32%
    23:00 +10°C° 0 mm 2 m/s 755 mmHg 33%

    Amanhã, 22 Janeiro, Terça-feira

    Tempo Temperatura Precipitação Vento Pressão Humidade
    00:00 +9°C° 0 mm 2 m/s 755 mmHg 34%
    01:00 +9°C° 0 mm 2 m/s 755 mmHg 36%
    02:00 +9°C° 0 mm 2 m/s 755 mmHg 37%
    03:00 +8°C° 0 mm 2 m/s 755 mmHg 38%
    04:00 +8°C° 0 mm 2 m/s 755 mmHg 40%
    05:00 +9°C° 0 mm 1 m/s 755 mmHg 41%
    06:00 +8°C° 0 mm 1 m/s 755 mmHg 43%
    07:00 +9°C° 0 mm 1 m/s 755 mmHg 40%
    08:00 +10°C° 0 mm 1 m/s 755 mmHg 37%
    09:00 +10°C° 0 mm 0 m/s 755 mmHg 34%
    10:00 +12°C° 0 mm 1 m/s 755 mmHg 32%
    11:00 +14°C° 0 mm 1 m/s 755 mmHg 29%
    12:00 +15°C° 0 mm 1 m/s 755 mmHg 27%
    13:00 +15°C° 0 mm 1 m/s 755 mmHg 26%
    14:00 +16°C° 0 mm 1 m/s 754 mmHg 25%
    15:00 +16°C° 0 mm 1 m/s 754 mmHg 24%
    16:00 +16°C° 0 mm 1 m/s 754 mmHg 27%
    17:00 +15°C° 0 mm 1 m/s 754 mmHg 29%
    18:00 +14°C° 0 mm 1 m/s 754 mmHg 31%
    19:00 +14°C° 0 mm 1 m/s 754 mmHg 33%
    20:00 +13°C° 0 mm 1 m/s 754 mmHg 34%
    21:00 +13°C° 0 mm 1 m/s 754 mmHg 36%
    22:00 +12°C° 0 mm 1 m/s 754 mmHg 37%
    23:00 +11°C° 0 mm 1 m/s 754 mmHg 39%

    Depois de amanhã, 23 Janeiro, Quarta-feira

    Tempo Temperatura Precipitação Vento Pressão Humidade
    00:00 +11°C° 0 mm 1 m/s 754 mmHg 41%
    01:00 +11°C° 0 mm 1 m/s 754 mmHg 42%
    02:00 +10°C° 0 mm 1 m/s 754 mmHg 43%
    03:00 +10°C° 0 mm 1 m/s 754 mmHg 44%
    04:00 +10°C° 0 mm 1 m/s 754 mmHg 44%
    05:00 +9°C° 0 mm 1 m/s 754 mmHg 45%
    06:00 +9°C° 0 mm 1 m/s 754 mmHg 45%
    07:00 +10°C° 0 mm 1 m/s 754 mmHg 41%
    08:00 +12°C° 0 mm 1 m/s 755 mmHg 37%
    09:00 +12°C° 0 mm 0 m/s 755 mmHg 33%
    10:00 +13°C° 0 mm 0 m/s 755 mmHg 31%
    11:00 +14°C° 0 mm 0 m/s 755 mmHg 28%
    12:00 +15°C° 0 mm 0 m/s 755 mmHg 26%
    13:00 +16°C° 0 mm 0 m/s 755 mmHg 24%
    14:00 +16°C° 0 mm 0 m/s 754 mmHg 23%
    15:00 +19°C° 0 mm 1 m/s 754 mmHg 22%
    16:00 +18°C° 0 mm 1 m/s 754 mmHg 24%
    17:00 +16°C° 0 mm 1 m/s 754 mmHg 27%
    18:00 +15°C° 0 mm 1 m/s 754 mmHg 29%
    19:00 +14°C° 0 mm 1 m/s 754 mmHg 30%
    20:00 +14°C° 0 mm 1 m/s 755 mmHg 31%
    21:00 +12°C° 0 mm 0 m/s 755 mmHg 32%
    22:00 +12°C° 0 mm 0 m/s 755 mmHg 32%
    23:00 +11°C° 0 mm 0 m/s 755 mmHg 33%

    24 Janeiro, Quinta-feira

    Tempo Temperatura Precipitação Vento Pressão Humidade
    00:00 +11°C° 0 mm 0 m/s 755 mmHg 34%
    01:00 +10°C° 0 mm 0 m/s 755 mmHg 35%
    02:00 +10°C° 0 mm 0 m/s 755 mmHg 35%
    03:00 +10°C° 0 mm 0 m/s 755 mmHg 36%
    04:00 +9°C° 0 mm 0 m/s 755 mmHg 36%
    05:00 +9°C° 0 mm 0 m/s 755 mmHg 37%
    06:00 +9°C° 0 mm 0 m/s 755 mmHg 37%
    07:00 +11°C° 0 mm 1 m/s 755 mmHg 34%
    08:00 +13°C° 0 mm 1 m/s 756 mmHg 30%
    09:00 +15°C° 0 mm 1 m/s 756 mmHg 27%
    10:00 +16°C° 0 mm 2 m/s 756 mmHg 25%
    11:00 +17°C° 0 mm 3 m/s 756 mmHg 22%
    12:00 +19°C° 0 mm 3 m/s 755 mmHg 19%
    13:00 +19°C° 0 mm 4 m/s 755 mmHg 19%
    14:00 +20°C° 0 mm 4 m/s 754 mmHg 18%
    15:00 +21°C° 0 mm 4 m/s 754 mmHg 17%
    16:00 +20°C° 0 mm 4 m/s 754 mmHg 19%
    17:00 +19°C° 0 mm 4 m/s 753 mmHg 20%
    18:00 +18°C° 0 mm 4 m/s 753 mmHg 22%
    19:00 +17°C° 0 mm 4 m/s 754 mmHg 23%
    20:00 +15°C° 0 mm 4 m/s 754 mmHg 24%
    21:00 +15°C° 0 mm 4 m/s 754 mmHg 24%
    22:00 +15°C° 0 mm 4 m/s 754 mmHg 25%
    23:00 +14°C° 0 mm 4 m/s 754 mmHg 25%

    25 Janeiro, Sexta-feira

    Tempo Temperatura Precipitação Vento Pressão Humidade
    00:00 +14°C° 0 mm 5 m/s 754 mmHg 26%
    01:00 +14°C° 0 mm 4 m/s 754 mmHg 26%
    02:00 +14°C° 0 mm 4 m/s 753 mmHg 27%
    03:00 +13°C° 0 mm 4 m/s 753 mmHg 27%
    04:00 +13°C° 0 mm 4 m/s 753 mmHg 29%
    05:00 +13°C° 0 mm 4 m/s 753 mmHg 32%
    06:00 +13°C° 0 mm 4 m/s 753 mmHg 34%
    07:00 +13°C° 0 mm 5 m/s 753 mmHg 36%
    08:00 +14°C° 0 mm 5 m/s 753 mmHg 38%
    09:00 +15°C° 0 mm 6 m/s 754 mmHg 39%
    10:00 +17°C° 0 mm 6 m/s 753 mmHg 38%
    11:00 +19°C° 0 mm 6 m/s 753 mmHg 36%
    12:00 +21°C° 0 mm 6 m/s 753 mmHg 35%
    13:00 +22°C° 0 mm 5 m/s 752 mmHg 33%
    14:00 +23°C° 0 mm 4 m/s 752 mmHg 31%
    15:00 +25°C° 0 mm 3 m/s 751 mmHg 29%
    16:00 +22°C° 0 mm 3 m/s 751 mmHg 32%
    17:00 +21°C° 0 mm 3 m/s 751 mmHg 35%
    18:00 +20°C° 0 mm 3 m/s 751 mmHg 38%
    19:00 +20°C° 0 mm 3 m/s 752 mmHg 40%
    20:00 +19°C° 0 mm 3 m/s 752 mmHg 42%
    21:00 +19°C° 0 mm 3 m/s 752 mmHg 45%
    22:00 +18°C° 0 mm 2 m/s 752 mmHg 46%
    23:00 +17°C° 0 mm 2 m/s 752 mmHg 48%

    26 Janeiro, Sábado

    Tempo Temperatura Precipitação Vento Pressão Humidade
    00:00 +17°C° 0 mm 2 m/s 752 mmHg 50%
    01:00 +16°C° 0 mm 2 m/s 752 mmHg 51%
    02:00 +16°C° 0 mm 1 m/s 752 mmHg 53%
    03:00 +16°C° 0 mm 1 m/s 751 mmHg 54%
    04:00 +16°C° 0 mm 2 m/s 751 mmHg 55%
    05:00 +15°C° 0 mm 2 m/s 751 mmHg 56%
    06:00 +15°C° 0 mm 2 m/s 751 mmHg 57%
    07:00 +16°C° 0 mm 3 m/s 752 mmHg 56%
    08:00 +17°C° 0 mm 3 m/s 752 mmHg 55%
    09:00 +18°C° 0 mm 4 m/s 752 mmHg 54%
    10:00 +19°C° 0 mm 4 m/s 752 mmHg 47%
    11:00 +21°C° 0 mm 4 m/s 752 mmHg 41%
    12:00 +23°C° 0 mm 5 m/s 751 mmHg 35%
    13:00 +25°C° 0 mm 5 m/s 751 mmHg 32%
    14:00 +26°C° 0 mm 5 m/s 750 mmHg 29%
    15:00 +27°C° 0 mm 5 m/s 750 mmHg 26%
    16:00 +26°C° 0 mm 5 m/s 750 mmHg 30%
    17:00 +23°C° 0 mm 4 m/s 750 mmHg 34%
    18:00 +22°C° 0 mm 4 m/s 750 mmHg 37%
    19:00 +22°C° 0 mm 4 m/s 750 mmHg 43%
    20:00 +21°C° 0 mm 4 m/s 750 mmHg 48%
    21:00 +21°C° 0 mm 4 m/s 750 mmHg 54%
    22:00 +21°C° 0 mm 4 m/s 750 mmHg 57%
    23:00 +20°C° 0 mm 4 m/s 750 mmHg 60%
    Mostrar mais